John Kew

Here are John's all time Phoenix Running results

26.2 miles
03:48:30 PB (234)
26.4 miles
06:24:02 PB (1)
32.8 miles
06:23:12 PB (2)
36.1 miles
06:27:29 PB (1)
50 miles
09:44:22 PB (2)
Phoenix Running Black Platinum Wings
Event Date Time Distance Pace Bib
NOT the London Marathon Run AGAIN 03/10/21 05:10:18 26.2 00:11:50 59
Dragon's Eye - Green 26/09/21 05:57:32 26.2 00:13:38 34
Zeus & the Thunderbolt vs the Gods 19/09/21 04:54:06 26.2 00:11:13 29
Track Wars VI - the Revenge 03/09/21 04:39:48 26.2 00:10:40 39
Track Wars VI - The Revenge - 12 hr & Evening Run 03/09/21 05:24:41 26.2 00:12:23 57
Summer Marathon & Half Marathon 21/08/21 04:39:57 26.2 00:10:41 87
The SUN Evening Run 16/08/21 06:15:38 26.2 00:14:20 1
The SUN Morning Run 16/08/21 06:19:43 26.2 00:14:29 1
The MERCURY Morning Run 15/08/21 06:32:40 26.2 00:14:59 1
The MERCURY Evening Run 15/08/21 06:33:05 26.2 00:15:00 1
The VENUS Morning Run 14/08/21 06:34:29 26.2 00:15:03 1
The VENUS Evening Run 14/08/21 06:35:19 26.2 00:15:05 1
The EARTH Morning Run 13/08/21 06:34:19 26.2 00:15:03 1
The EARTH Evening Run 13/08/21 06:48:58 26.2 00:15:36 1
The MARS Morning Run 12/08/21 06:32:14 26.2 00:14:58 1
The MARS Evening Run 12/08/21 06:28:59 26.2 00:14:50 1
The JUPITER Morning Run 11/08/21 05:51:59 26.2 00:13:26 1
The JUPITER Evening Run 11/08/21 06:46:51 26.2 00:15:31 1
The SATURN Morning Run 10/08/21 07:02:33 26.2 00:16:07 1
The SATURN Evening Run 10/08/21 07:07:48 26.2 00:16:19 1
The URANUS Evening Run 09/08/21 06:42:14 26.2 00:15:21 1
The URANUS Morning Run 09/08/21 06:40:21 26.2 00:15:16 1
The NEPTUNE Morning Run 08/08/21 06:54:31 26.2 00:15:49 1
The NEPTUNE Evening Run 08/08/21 06:20:55 26.2 00:14:32 1
The PLUTO Morning Run 07/08/21 06:22:54 26.2 00:14:36 1
The PLUTO Evening Run 07/08/21 06:33:37 26.2 00:15:01 1
Run by Me - Katie Simpsons 100th 31/07/21 05:36:02 26.2 00:12:49 3
EXPLORER Run - the WORLDS BIGGEST Medal is BACK 18/07/21 06:52:21 26.2 00:15:44 217
One Run to Rule Them All - The Elven White Run 17/07/21 05:57:24 26.2 00:13:38 2
Top Run 2 16/07/21 05:19:11 26.2 00:12:10 42
Cyclops II 04/07/21 06:39:50 26.2 00:15:15 34
HERCULES Labour Two - the Night Run 03/07/21 06:25:02 26.2 00:14:41 33
Hop-a-thon 03/07/21 04:58:35 26.2 00:11:23 50
Minotaur 50 Mile - Denbies Marathon & Half 2021 19/06/21 06:57:25 26.2 00:15:55 79
Minotaur 50 Mile - Denbies Marathon & Half 2021 19/06/21 07:27:52 26.2 00:17:05 80
Pop-Up Remembrance Run 2021 13/06/21 05:57:33 26.2 00:13:38 4
Wrath of Poseidon 06/06/21 06:52:26 26.2 00:15:44 26
God of Thunder 05/06/21 05:28:40 26.2 00:12:32 9
One Run to Rule Them All - The Elven Red Run 29/05/21 04:53:03 26.2 00:11:11 9
Frozen Phoenix 28/05/21 06:19:10 26.2 00:14:28 9
Runderbird 1 27/05/21 05:57:25 26.2 00:13:38 200
Runderbird 2 26/05/21 04:50:16 26.2 00:11:04 9
Runderbird 3 25/05/21 05:48:36 26.2 00:13:18 9
Runderbird 4 24/05/21 05:52:45 26.2 00:13:27 9
Runderbird 5 23/05/21 05:56:33 26.2 00:13:36 9
Top Run 22/05/21 04:37:58 26.2 00:10:36 9
Grease Lightning Run 21/05/21 05:54:17 26.2 00:13:31 9
Run to the PUB 20/05/21 05:41:08 26.2 00:13:01 9
Movies Day 19/05/21 06:38:05 26.2 00:15:11 9
X-PhoeniX 18/05/21 06:35:37 26.2 00:15:05 9
The Cyclops 17/05/21 06:17:55 26.2 00:14:25 9
Marmalade Mooch 16/05/21 05:16:03 26.2 00:12:03 9
Shark Run 15/05/21 06:21:19 26.2 00:14:33 9
Top Run 3 14/05/21 05:51:10 26.2 00:13:24 9
Groovy Baby 13/05/21 06:27:30 26.2 00:14:47 9
Dinosaur Dash 12/05/21 06:12:24 26.2 00:14:12 9
PJ's on the Path 11/05/21 06:27:41 26.2 00:14:47 9
Once Upon A Run 10/05/21 05:55:34 26.2 00:13:34 9
One Run to Rule Them All 09/05/21 06:47:00 26.2 00:15:32 9
VE Day 75th Anniversary Run 03/05/21 06:44:50 26.2 00:15:27 91
POP-Up - DOUBLE the Force 02/05/21 06:11:05 26.2 00:14:09 9
Hard CHEESE & WHINE-athon 25/04/21 06:49:09 26.2 00:15:36 149
Remembrance Day Marathon & Half Marathon 04/11/20 04:45:15 26.2 00:10:53 71
God of Thunder II 01/11/20 07:20:08 26.2 00:16:47 5
Skull Runner - Halloween Special 31/10/20 06:17:37 26.2 00:14:24 122
Cyclops 2020 18/10/20 04:53:42 26.2 00:11:12 6
Back to the 80's 17/10/20 05:26:39 26.2 00:12:28 6
NOT the London Marathon Run AGAIN 04/10/20 04:49:50 26.2 00:11:03 4
A Phoenix Wedding Run 03/10/20 05:29:22 26.2 00:12:34 5
HERCULES Labour Five 19/09/20 05:25:09 26.2 00:12:24 13
Leviathon 50 mile Ultra 19/09/20 06:05:35 26.2 00:13:57 58
Phoenix Party Train II 13/09/20 04:54:11 26.2 00:11:13 84
Hard CHEESE & WHINE-athon Runners Unite 06/09/20 07:08:53 26.2 00:16:22 174
Release the KRAKEN 05/09/20 07:19:16 26.2 00:16:45 76
Track Wars V - the Morning Misery 04/09/20 04:56:00 26.2 00:11:17 2
Track Wars V - the Evening Misery 04/09/20 06:24:02 26.4 00:14:32 2
Phoenix Party Train 22/08/20 06:18:27 26.2 00:14:26 10
Odins Spear 16/08/20 06:51:39 26.2 00:15:42 13
HERCULES Labour Four 09/08/20 06:19:28 26.2 00:14:29 3
HERCULES Labour Three 08/08/20 06:21:21 26.2 00:14:33 3
Track Wars IV - Pop-Up NIGHT Run 13/03/20 05:41:50 26.2 00:13:02 211
Track Wars III 13/03/20 05:47:50 26.2 00:13:16 142
Spring Marathon & Half Marathon 07/03/20 05:56:03 26.2 00:13:35 1
100 Marathon Club AGM Marathon & Timed Event 2020 22/02/20 05:45:59 26.2 00:13:11 164
PRDNDTS 09/02/20 05:51:51 26.2 00:13:24 73
One Run to Rule Them All - The Elven Blue Run 08/02/20 05:45:44 26.2 00:13:10 59
HERCULES Labour One 26/01/20 04:55:37 26.2 00:11:15 111
Pick n Mix Race To The Bling 25/01/20 05:35:41 26.2 00:12:47 141
Zeus & the Thunderbolt 19/01/20 04:49:36 26.2 00:11:02 116
Doughnut Dash 18/01/20 05:41:36 26.2 00:13:01 69
Frozen Phoenix - Day 2 30/12/19 06:27:29 36.1 00:10:44 40
Frozen Phoenix - Day 1 29/12/19 06:26:34 32.8 00:11:47 54
Year End Marathon & Half Marathon 28/12/19 04:54:44 26.2 00:11:14 117
Excalibur Twelve 21/12/19 06:23:12 32.8 00:11:40 58
Rob's Pop Up 100th & the Band of Runners Xmas Run 07/12/19 04:50:45 26.2 00:11:04 74
Riverside Marathon & Half Marathon 17/11/19 05:24:29 26.2 00:12:23 106
Squid Run & Day at the Movies Charity Run 16/11/19 04:48:48 26.2 00:11:00 78
Remembrance Day Marathon & Half Marathon 10/11/19 04:48:04 26.2 00:10:59 652
Excalibur Eleven 09/11/19 04:48:15 26.2 00:10:59 44
Excalibur Ten 20/10/19 05:47:00 26.2 00:13:13 58
Leviathon 50 mile Ultra 19/10/19 09:44:22 50 00:11:41 16
Race to the Thrones - Part 2 21/09/19 05:55:35 26.2 00:13:33 30
Race to the Thrones - Part 1 21/09/19 04:47:47 26.2 00:10:58 52
Track Wars II - Pop Up Excalibur 06/09/19 03:48:30 26.2 00:08:43 50
Excalibur Nine 01/09/19 04:47:22 26.2 00:10:57 152
Excalibur Eight 31/08/19 05:14:11 26.2 00:11:58 51
One Run to Bring Them All 11/08/19 05:49:46 26.2 00:13:19 48
One Run to Find Them 10/08/19 04:56:34 26.2 00:11:18 119
Pop-Up Saturday Evening D-Day Run 03/08/19 05:30:12 26.2 00:12:35 33
Summer Marathon & Half Marathon 03/08/19 05:55:53 26.2 00:13:35 98
Space Race - GOLD 21/07/19 04:48:13 26.2 00:10:59 179
Space Race - SILVER 20/07/19 04:56:51 26.2 00:11:18 177
Excalibur Seven 19/07/19 05:56:09 26.2 00:13:34 35
Runderbirds Are Go - Day 5 30/06/19 04:54:21 26.2 00:11:13 10
Runderbirds Are Go - Day 4 29/06/19 05:53:18 26.2 00:13:27 10
Runderbirds Are Go - Day 3 28/06/19 05:26:00 26.2 00:12:25 10
Runderbirds Are Go - Day 2 27/06/19 04:57:17 26.2 00:11:19 10
Runderbirds Are Go - Day 1 26/06/19 05:36:42 26.2 00:12:49 10
Thames Path Potter 09/06/19 05:13:34 26.2 00:11:56 52
Excalibur Six - The KNight Run 2019 08/06/19 05:22:00 26.2 00:12:16 22
D-Day 75th AIR Run 08/06/19 04:55:01 26.2 00:11:14 54
D-Day 75th SEA Run 07/06/19 05:25:41 26.2 00:12:24 63
D-Day 75th LAND Run 06/06/19 06:28:03 26.2 00:14:47 43
Golden Phoenix Marathon 02/06/19 04:56:28 26.2 00:11:18 89
Silver Phoenix Run 01/06/19 06:07:29 26.2 00:14:00 104
Pop-Up Saturday Evening Remembrance Run 2019 25/05/19 04:57:13 26.2 00:11:19 433
Excalibur Five - The Long One 2019 18/05/19 04:55:59 26.2 00:11:16 135
X-PhoeniX 22/04/19 04:55:03 26.2 00:11:14 31
Run to the PUB 21/04/19 04:52:47 26.2 00:11:09 31
Marmalade Mooch 20/04/19 04:54:21 26.2 00:11:13 31
Ty-RUN-osaurus BONES 19/04/19 04:52:29 26.2 00:11:08 31
Tricera-TROT BONES 18/04/19 04:39:32 26.2 00:10:39 31
Di-PLOD-ocus BONES 17/04/19 04:55:15 26.2 00:11:15 31
PJ's on the Path 16/04/19 04:41:39 26.2 00:10:44 31
Movies Day 15/04/19 04:55:32 26.2 00:11:15 31
Groovy Baby 14/04/19 04:54:19 26.2 00:11:12 31
Top Run 3 13/04/19 05:29:54 26.2 00:12:34 31
Excalibur Four - DAY & Knight (Morning Run) 2019 06/04/19 04:45:17 26.2 00:10:52 58
Excalibur Four - KNIGHT & Day (Evening Run) 2019 06/04/19 05:38:55 26.2 00:12:54 58
Spring Marathon & Half Marathon 02/03/19 05:52:52 26.2 00:13:28 90
Excalibur Three - Track Wars 01/03/19 03:57:54 26.2 00:09:04 54
Dirty Running 24/02/19 04:29:01 26.2 00:10:15 48
Jaw Dropper 23/02/19 04:42:44 26.2 00:10:46 59
Grease Lightning Run 22/02/19 04:51:45 26.2 00:11:07 39
Excalibur Two 21/02/19 05:58:46 26.2 00:13:40 166
Doughnut Dash 10/02/19 05:37:16 26.2 00:12:51 61
One Run to Rule Them All 09/02/19 05:54:55 26.2 00:13:31 122
Excalibur One 27/01/19 04:51:51 26.2 00:11:07 66
Pick n Mix Movies 26/01/19 05:24:31 26.2 00:12:22 71
Frozen Phoenix - Day 2 30/12/18 04:34:15 26.2 00:10:27 63
Frozen Phoenix - Day 1 29/12/18 04:48:35 26.2 00:10:59 59
Year End Marathon & Half Marathon 28/12/18 04:58:24 26.2 00:11:23 74
Timelord on the Thames 22/11/18 05:29:47 26.2 00:12:34 66
Riverside Marathon & Half Marathon 18/11/18 04:58:27 26.2 00:11:23 78
Squid Run & Day at the Movies Charity Run 17/11/18 05:28:34 26.2 00:12:31 55
Remembrance Day Marathon & Half Marathon 11/11/18 04:51:50 26.2 00:11:08 207
Dinosaur Dash 10/11/18 04:44:26 26.2 00:10:50 63
Numbers Game Marathon - Day 2 07/10/18 05:42:28 26.2 00:13:04 92
Leviathon 50 mile Ultra 06/10/18 010:26:15 50 00:12:31 252
Pyjamathon 29/09/18 04:56:53 26.2 00:11:18 39
The Running Man 22/09/18 04:54:41 26.2 00:11:13 177
Night Phoenix 22/09/18 05:44:27 26.2 00:13:07 46
Once Upon a Run - Day 4 02/09/18 04:54:59 26.2 00:11:14 29
Once Upon a Run - Day 3 01/09/18 04:53:06 26.2 00:11:10 57
Once Upon a Run - Day 2 31/08/18 04:55:26 26.2 00:11:15 31
Once Upon a Run - Day 1 30/08/18 04:44:39 26.2 00:10:50 32
Carry On up the Towpath 05/08/18 05:37:39 26.2 00:12:52 55
Summer Marathon & Half Marathon 04/08/18 05:25:59 26.2 00:12:26 77
Dark Phoenix 04/08/18 05:35:19 26.2 00:12:46 47
Space Race - BRONZE 20/07/18 04:51:39 26.2 00:11:06 65
The sharkrun - Whitetip 15/07/18 05:58:52 26.2 00:13:40 33
The sharkrun - Grey Reef 14/07/18 05:31:00 26.2 00:12:36 66
The sharkrun - Hammerhead 13/07/18 05:18:17 26.2 00:12:07 40
Thames Path Potter 10/06/18 06:18:49 26.2 00:14:26 198
Explorer 09/06/18 05:27:22 26.2 00:12:28 73
Black Phoenix 09/06/18 05:43:01 26.2 00:13:04 43
PJ's in the Park 03/06/18 05:42:12 26.2 00:13:02 129
Pop-Up Saturday Evening Run 2018 26/05/18 05:56:50 26.2 00:13:35 106
Top Run 11/05/18 05:49:37 26.2 00:13:19 67
Groovy Baby 08/04/18 06:05:10 26.2 00:13:54 52
Leon The Runner 07/04/18 05:36:52 26.2 00:12:50 92
Spring Marathon & Half Marathon 03/03/18 06:05:26 26.2 00:13:56 146
Dirty Running 18/02/18 05:37:14 26.2 00:12:51 65
Jaw Dropper 17/02/18 05:44:41 26.2 00:13:08 75
Grease Lightning Run 16/02/18 06:10:49 26.2 00:14:07 64
Breakfast Race 15/02/18 06:09:09 26.2 00:14:04 36
The Runner Bean 28/01/18 06:00:10 26.2 00:13:43 68
Pick n Mix Sci-Fi 27/01/18 06:00:44 26.2 00:13:44 163
Frozen Phoenix - Day 2 30/12/17 04:52:52 26.2 00:11:09 72
Frozen Phoenix - Day 1 29/12/17 05:59:48 26.2 00:13:42 53
Year End Marathon & Half Marathon 28/12/17 05:43:59 26.2 00:13:07 124
Timelord on the Thames 23/11/17 04:51:21 26.2 00:11:06 61
Riverside Marathon & Half Marathon 19/11/17 04:47:38 26.2 00:10:57 78
Squid Run & Day at the Movies Charity Run 18/11/17 04:58:06 26.2 00:11:21 112
Di-Plod-ocus 14/11/17 05:49:39 26.2 00:13:19 34
Tricera-TROT 13/11/17 05:50:17 26.2 00:13:20 36
I'll be back run 27/10/17 05:36:16 26.2 00:12:48 45
Back to the Future Run 21/10/17 05:54:43 26.2 00:13:31 45
Numbers Game Marathon - Day 2 08/10/17 04:45:27 26.2 00:10:52 57
Numbers Game Marathon - Day 1 07/10/17 05:57:32 26.2 00:13:37 57
Night Phoenix 23/09/17 05:59:20 26.2 00:13:41 36
Top Run II 23/09/17 05:33:25 26.2 00:12:42 59
Mogwai Run II 01/09/17 05:29:24 26.2 00:12:33 42
Mogwai Run I 31/08/17 05:54:27 26.2 00:13:30 49
Dark Phoenix 05/08/17 04:56:40 26.2 00:11:18 37
Summer Marathon & Half Marathon 05/08/17 05:20:59 26.2 00:12:13 128
Thames Path Potter II 11/06/17 05:51:16 26.2 00:13:23 3
Black Phoenix 10/06/17 04:55:03 26.2 00:11:14 46
Thames Path Potter 10/06/17 05:21:49 26.2 00:12:15 62
Who ya Gonna Call Run 08/06/17 04:40:04 26.2 00:10:40 40
Goonie Run 07/06/17 05:33:29 26.2 00:12:42 63
Indy Run 01/06/17 05:14:27 26.2 00:11:59 51
Top Run 12/05/17 04:49:12 26.2 00:11:01 76
Groovy Baby 02/04/17 05:37:51 26.2 00:12:52 76
Spring Marathon & Half Marathon 04/03/17 05:09:51 26.2 00:11:48 101
Jaw Dropper 18/02/17 04:53:23 26.2 00:11:10 64
Breakfast Race 15/02/17 05:38:01 26.2 00:12:52 63
Year End Marathon & Half Marathon 28/12/16 05:50:17 26.2 00:13:20 71
Riverside Marathon & Half Marathon 20/11/16 05:20:41 26.2 00:12:13 187
Squid Run & Day at the Movies Charity Run 19/11/16 06:13:34 26.2 00:14:14 39
I'll be back run 28/10/16 04:46:40 26.2 00:10:55 50
Numbers Game Marathon - Day 2 09/10/16 04:33:37 26.2 00:10:25 35
Numbers Game Marathon - Day 1 08/10/16 05:25:30 26.2 00:12:24 35
Pyjamathon 01/10/16 04:24:48 26.2 00:10:05 36
Top Run II 24/09/16 05:13:05 26.2 00:11:55 54
Night Phoenix 24/09/16 05:55:29 26.2 00:13:32 31
Dark Phoenix 06/08/16 05:41:32 26.2 00:13:00 16
Summer Marathon & Half Marathon 06/08/16 04:46:38 26.2 00:10:55 74
Phone Home Run 12/06/16 04:55:01 26.2 00:11:14 52
Day Off Run 11/06/16 04:54:43 26.2 00:11:13 39
Who ya Gonna Call Run 08/06/16 05:37:39 26.2 00:12:52 60
Indy Run 01/06/16 05:02:27 26.2 00:11:31 62
First Contact Day Run 05/04/16 06:25:43 26.2 00:14:41 73
Spring Marathon & Half Marathon 05/03/16 05:32:39 26.2 00:12:40 280
Breakfast Race 15/02/16 05:47:35 26.2 00:13:14 56
Year End Marathon & Half Marathon 28/12/15 05:06:30 26.2 00:11:40 189
Riverside Marathon & Half Marathon 22/11/15 04:15:23 26.2 00:09:43 73
Back to the Future Run 21/10/15 04:20:37 26.2 00:09:55 62
Summer Marathon & Half Marathon 01/08/15 04:35:16 26.2 00:10:29 248
Year End Marathon & Half Marathon 28/12/14 05:01:01 26.2 00:11:28 167